Back to catalog

THOR ABLESTAR DEB

AliveLEO
NORAD 470·DEBRIS·🇺🇸 United States

Launched Jun 29, 1961 from Cape Canaveral Space Force Station

Loading…

Next Passes (next 24 hours)

TLE

FreshSource: Space-Track

Epoch: Sep 14, 2026, 15:40 UTC

1 00470U 61015FG  26257.65301637  .00000625  00000-0  39639-3 0  9993
2 00470  66.2309  42.7999 0074188 271.6028  87.6559 14.09427115325007

Track THOR ABLESTAR DEB in real time with AllMySat

Download on the App Store